User: anonymous
Location: NJAA Observatory
(40.6819°N, 74.8979°W)
Time: 11:22:14
(UTC-04:00)
Language:

Tiros 2 - Orbit

View from above orbital plane
View from above orbital plane
View from above satellite
View from above satellite

Ground track
Ground track

The orbit data is extracted from the following two-line orbital elements,

1 00063U 60016A   14137.84158636  .05029428  11996-4  29744-3 0  4511
2 00063 048.4363 277.0735 0002693 070.9689 289.2672 16.41566560916315
Epoch (UTC): 17 May 2014 20:11:53
Eccentricity: 0.0002693
inclination: 48.4363°
perigee height: 160 km
apogee height: 163 km
right ascension of ascending node: 277.0735°
argument of perigee: 70.9689°
revolutions per day: 16.41566560
mean anomaly at epoch: 289.2672°
orbit number at epoch: 91631

The dashed part of the orbit path shows where the satellite is in the earth's shadow,  

DLR